[[{"header":{"parameterUnit":"m.s-1","parameterCategory":1,"la1":30.2991,"la2":30.254,"lo1":-89.0895,"lo2":-89.0444,"dy":0.0017,"dx":0.0017,"nx":28,"ny":28,"refTime":"2023-11-04T03:00:00:Z","depth":0,"parameterNumber":2,"parameterNumberName":"U-component_of_WINDS"},"data":[0,0,0,0,0,0,0,0,0,0,0,0,0,0,0,0,0,0,0,0,0,0,0,0,0,0,0,0,0,0,0,0,0,0,0,0,0,0,0,0,0,0,0,0,0,0,0,0,0,0,0,0,0,0,0,0,0,0,-0.3691,-0.3689,0,-0.3587,-0.3585,-0.3584,-0.3503,-0.3502,-0.3501,-0.35,-0.3395,-0.3393,-0.3391,0,0,0,0,0,0,0,0,0,0,0,0,0,-0.3821,-0.3819,-0.3691,-0.3689,-0.3688,-0.3587,-0.3585,-0.3584,-0.3503,-0.3502,-0.3501,-0.35,-0.3396,-0.3393,-0.3391,0,0,0,0,0,0,0,0,0,0,0,0,0,-0.3745,-0.3818,-0.3691,-0.3635,-0.3629,-0.3587,-0.3585,-0.3584,-0.3503,-0.3502,-0.3501,-0.3499,-0.3397,-0.3394,-0.3391,-0.3395,0,0,-0.3381,-0.338,0,0,0,0,0,0,0,0,-0.375,-0.3741,-0.3645,-0.3639,-0.3632,-0.3556,-0.3592,-0.3521,-0.3503,-0.3551,-0.35,-0.3499,-0.345,-0.3442,-0.3425,-0.3391,-0.3386,-0.3381,-0.3379,-0.3378,-0.3377,0,0,0,0,0,0,0,-0.3755,-0.3745,-0.3649,-0.3644,-0.3636,-0.3616,-0.3604,-0.3578,-0.3508,-0.3547,-0.3541,-0.3529,-0.3446,-0.3429,-0.3422,-0.3384,-0.3381,-0.3378,-0.3376,-0.3375,-0.335,-0.3351,0,0,0,0,0,0,-0.3769,-0.3749,-0.3653,-0.3646,-0.3689,-0.3615,-0.3601,-0.3582,-0.3508,-0.3496,-0.353,-0.3526,-0.3434,-0.3426,-0.3418,-0.3421,-0.3378,-0.3375,-0.3373,-0.3349,-0.3351,-0.3352,0,0,0,0,0,0,-0.3772,-0.3761,-0.3657,-0.3696,-0.3681,-0.3614,-0.3593,-0.3581,-0.3563,-0.3496,-0.3483,-0.3525,-0.3433,-0.3423,-0.3402,-0.3416,-0.3373,-0.3371,-0.3348,-0.335,-0.3351,-0.3425,0,0,0,0,0,0,-0.3776,-0.3762,-0.3763,-0.3697,-0.368,-0.3642,-0.3593,-0.3579,-0.3558,-0.3551,-0.3488,-0.3476,-0.3431,-0.3407,-0.3399,-0.3411,-0.3368,-0.3346,-0.3349,-0.3351,-0.3422,-0.343,-0.3436,0,0,0,0,0,-0.3781,-0.3788,-0.3764,-0.3752,-0.3679,-0.3643,-0.3633,-0.3581,-0.3559,-0.356,-0.3517,-0.3478,-0.3416,-0.3406,-0.3396,-0.3407,-0.3345,-0.3348,-0.3351,-0.3418,-0.3428,-0.3436,0,0,0,0,0,0,-0.3858,-0.3778,-0.375,-0.3736,-0.3697,-0.3629,-0.3629,-0.3593,-0.356,-0.3555,-0.3491,-0.3478,-0.3465,-0.3433,-0.3424,-0.3409,-0.3375,-0.3376,-0.343,-0.3439,-0.3446,-0.3455,-0.3366,0,0,0,0,0,-0.3873,-0.385,-0.3782,-0.3776,-0.3758,-0.3697,-0.3679,-0.3642,-0.3599,-0.3583,-0.3538,-0.3499,-0.347,-0.3452,-0.3422,-0.3416,-0.3402,-0.3419,-0.3427,-0.3433,-0.3435,-0.3432,-0.3439,-0.3361,-0.3361,-0.3361,0,0,-0.3905,-0.3859,-0.3848,-0.3791,-0.3756,-0.3734,-0.3684,-0.3662,-0.3646,-0.3579,-0.3558,-0.3524,-0.3475,-0.3463,-0.3455,-0.3436,-0.3453,-0.3436,-0.3442,-0.3441,-0.3435,-0.3443,-0.3449,-0.3363,-0.3362,-0.3362,0,0,-0.3952,-0.3914,-0.3906,-0.3872,-0.382,-0.378,-0.3778,-0.3716,-0.3691,-0.3668,-0.3618,-0.3597,-0.3549,-0.3517,-0.3494,-0.353,-0.3495,-0.3522,-0.3562,-0.3559,-0.3566,-0.3571,-0.3586,-0.3592,-0.3524,-0.3524,-0.3524,0,-0.3998,-0.3963,-0.3906,-0.3889,-0.3866,-0.3804,-0.3796,-0.3766,-0.3707,-0.3693,-0.3673,-0.3612,-0.3574,-0.3555,-0.3564,-0.3546,-0.3544,-0.353,-0.3569,-0.3574,-0.3578,-0.3592,-0.3597,-0.3528,-0.3528,-0.3527,-0.3527,0,-0.4024,-0.4,-0.4,-0.3945,-0.3922,-0.3909,-0.3851,-0.3834,-0.3799,-0.3761,-0.374,-0.3693,-0.3653,-0.3645,-0.3611,-0.3621,-0.3611,-0.3581,-0.3546,-0.359,-0.3602,-0.3607,-0.3534,-0.3532,-0.3531,-0.353,0,0,-0.4118,-0.4031,-0.4032,-0.4007,-0.3946,-0.3927,-0.3912,-0.3873,-0.3861,-0.3822,-0.3809,-0.377,-0.3742,-0.3716,-0.3678,-0.3675,-0.3709,-0.3645,-0.3643,-0.3661,-0.372,-0.3745,-0.3752,-0.3684,-0.3685,-0.3685,-0.3725,0,-0.4157,-0.4126,-0.4075,-0.4061,-0.404,-0.3981,-0.3968,-0.3929,-0.3893,-0.3871,-0.3831,-0.3805,-0.3769,-0.3753,-0.3748,-0.3706,-0.3721,-0.3702,-0.3673,-0.3673,-0.369,-0.3757,-0.3783,-0.3823,-0.3729,-0.373,-0.373,0,-0.4198,-0.4164,-0.4148,-0.4089,-0.4078,-0.4068,-0.4029,-0.4007,-0.3962,-0.3936,-0.3909,-0.3867,-0.3849,-0.3816,-0.3792,-0.3781,-0.3765,-0.3743,-0.3744,-0.3741,-0.3706,-0.3759,-0.3834,-0.3841,-0.3736,-0.3736,-0.3735,0,-0.4271,-0.422,-0.4205,-0.4185,-0.4115,-0.411,-0.4081,-0.4034,-0.4015,-0.398,-0.3967,-0.3931,-0.3912,-0.3886,-0.3836,-0.3816,-0.3818,-0.378,-0.3798,-0.3799,-0.3802,-0.3803,-0.3879,-0.3789,-0.3789,-0.3789,-0.3789,0,-0.4322,-0.4315,-0.4237,-0.4228,-0.4219,-0.416,-0.4154,-0.4119,-0.4079,-0.4063,-0.4009,-0.3995,-0.3929,-0.3907,-0.3868,-0.3855,-0.3846,-0.3826,-0.3816,-0.3832,-0.3835,-0.3823,-0.382,-0.379,-0.379,-0.379,-0.379,0,-0.4403,-0.435,-0.4329,-0.4265,-0.4249,-0.4246,-0.4191,-0.4181,-0.4141,-0.4122,-0.4114,-0.4053,-0.4025,-0.3972,-0.3929,-0.3903,-0.39,-0.3881,-0.3915,-0.3909,-0.3931,-0.393,-0.4003,-0.401,-0.3914,-0.3915,-0.3916,0,-0.4439,-0.4433,-0.4368,-0.4353,-0.4326,-0.4303,-0.4283,-0.4224,-0.4205,-0.4155,-0.4151,-0.4119,-0.409,-0.4049,-0.4002,-0.3969,-0.3951,-0.3978,-0.3946,-0.3963,-0.3954,-0.3956,-0.3956,-0.3987,-0.3988,-0.3989,-0.399,0,-0.4511,-0.4485,-0.4458,-0.4422,-0.4399,-0.4367,-0.4333,-0.4324,-0.4258,-0.424,-0.4211,-0.4189,-0.4146,-0.4116,-0.4077,-0.4047,-0.4009,-0.4,-0.4003,-0.402,-0.4042,-0.4033,-0.3938,-0.3999,-0.3998,-0.3998,-0.3997,-0.3997,-0.4572,-0.4565,-0.4518,-0.449,-0.4458,-0.4428,-0.4415,-0.4374,-0.4349,-0.4309,-0.4276,-0.4251,-0.4207,-0.4151,-0.4124,-0.4104,-0.4085,-0.4088,-0.409,-0.4092,-0.41,-0.4043,-0.4096,-0.4096,-0.4096,-0.4095,-0.4095,0,-0.4643,-0.461,-0.4585,-0.4539,-0.4517,-0.4481,-0.4442,-0.4426,-0.4404,-0.4367,-0.434,-0.4308,-0.4278,-0.4228,-0.4195,-0.4189,-0.4171,-0.4183,-0.4184,-0.4178,-0.4117,-0.4119,-0.4198,-0.4198,-0.4198,-0.4198,-0.4198,-0.4198,-0.4678,-0.4664,-0.4633,-0.4603,-0.457,-0.4544,-0.4525,-0.4497,-0.4467,-0.4434,-0.4409,-0.4376,-0.4334,-0.4298,-0.427,-0.4256,-0.4248,-0.4266,-0.4247,-0.4192,-0.4182,-0.4173,-0.4175,-0.4264,-0.4264,-0.431,-0.431,-0.431]},{"header":{"parameterUnit":"m.s-1","parameterCategory":1,"la1":30.2991,"la2":30.254,"lo1":-89.0895,"lo2":-89.0444,"dy":0.0017,"dx":0.0017,"nx":28,"ny":28,"refTime":"2023-11-04T03:00:00:Z","depth":0,"parameterNumber":3,"parameterNumberName":"V-component_of_WINDS"},"data":[0,0,0,0,0,0,0,0,0,0,0,0,0,0,0,0,0,0,0,0,0,0,0,0,0,0,0,0,0,0,0,0,0,0,0,0,0,0,0,0,0,0,0,0,0,0,0,0,0,0,0,0,0,0,0,0,0,0,0.7029,0.7029,0,0.6997,0.6997,0.6996,0.6988,0.6988,0.6988,0.6989,0.6951,0.695,0.6949,0,0,0,0,0,0,0,0,0,0,0,0,0,0.7079,0.7079,0.7029,0.7029,0.7029,0.6997,0.6997,0.6996,0.6988,0.6988,0.6988,0.6989,0.6951,0.695,0.6949,0,0,0,0,0,0,0,0,0,0,0,0,0,0.7053,0.7078,0.703,0.7021,0.702,0.6997,0.6997,0.6996,0.6988,0.6988,0.6988,0.6989,0.6952,0.695,0.6948,0.6931,0,0,0.6943,0.6942,0,0,0,0,0,0,0,0,0.7055,0.7052,0.7022,0.7021,0.702,0.6997,0.7001,0.6974,0.6988,0.7,0.6989,0.6989,0.6966,0.6963,0.6956,0.6929,0.6928,0.6943,0.6942,0.6941,0.694,0,0,0,0,0,0,0,0.7057,0.7053,0.7017,0.7022,0.7021,0.7017,0.7014,0.6996,0.6981,0.6999,0.6998,0.6995,0.6965,0.6958,0.6955,0.6927,0.6943,0.6941,0.694,0.6939,0.6883,0.6883,0,0,0,0,0,0,0.7061,0.7054,0.7018,0.7016,0.7039,0.7016,0.7012,0.7004,0.6981,0.6978,0.6994,0.6994,0.6961,0.6957,0.6954,0.6931,0.6941,0.6939,0.6938,0.6883,0.6883,0.6882,0,0,0,0,0,0,0.7062,0.7057,0.7019,0.7035,0.703,0.7015,0.7006,0.7003,0.6996,0.6978,0.6975,0.699,0.6961,0.6956,0.6937,0.6929,0.6938,0.6937,0.6884,0.6883,0.6883,0.6886,0,0,0,0,0,0,0.7063,0.7058,0.7052,0.7035,0.7029,0.7004,0.7005,0.7002,0.6993,0.6993,0.6973,0.697,0.6961,0.6939,0.6935,0.6927,0.6935,0.6884,0.6884,0.6883,0.6886,0.6885,0.6885,0,0,0,0,0,0.7065,0.7054,0.7052,0.7048,0.7022,0.7004,0.7,0.6991,0.6993,0.6986,0.6975,0.6971,0.6931,0.6938,0.6932,0.6924,0.6885,0.6884,0.6883,0.6887,0.6886,0.6885,0,0,0,0,0,0,0.7069,0.7051,0.7049,0.7032,0.702,0.7002,0.6994,0.699,0.6975,0.6976,0.6963,0.6959,0.694,0.693,0.6937,0.6905,0.6908,0.6906,0.6912,0.6911,0.691,0.6913,0.6934,0,0,0,0,0,0.7069,0.7057,0.7041,0.7028,0.7022,0.7009,0.7001,0.6995,0.698,0.6975,0.6962,0.6947,0.6931,0.6921,0.6905,0.6885,0.688,0.6877,0.6876,0.6875,0.6873,0.686,0.6858,0.6879,0.6879,0.6879,0,0,0.7066,0.7055,0.7048,0.7028,0.7018,0.7004,0.7004,0.699,0.6979,0.6972,0.6953,0.6943,0.6925,0.6905,0.6896,0.6896,0.6866,0.6874,0.6874,0.6872,0.6859,0.6857,0.6856,0.6879,0.6879,0.6879,0,0,0.7055,0.7046,0.7034,0.7023,0.7008,0.7,0.6997,0.698,0.6973,0.6954,0.6948,0.6934,0.6908,0.6895,0.6885,0.6869,0.6864,0.6864,0.6859,0.6847,0.6845,0.6844,0.6837,0.6834,0.6862,0.6862,0.6862,0,0.7054,0.7035,0.7027,0.7014,0.7004,0.6998,0.6984,0.6974,0.6954,0.6947,0.6948,0.6914,0.6902,0.6878,0.6874,0.6867,0.6862,0.6866,0.6847,0.6845,0.6843,0.6836,0.6834,0.6862,0.6862,0.6862,0.6862,0,0.7034,0.7021,0.7012,0.6994,0.6984,0.697,0.6958,0.6948,0.6943,0.6934,0.6914,0.6899,0.688,0.6874,0.6869,0.6849,0.685,0.6849,0.6851,0.6841,0.6834,0.6832,0.6862,0.6862,0.6862,0.6862,0,0,0.7024,0.7002,0.6999,0.699,0.6973,0.6961,0.6947,0.6929,0.6921,0.6907,0.6893,0.687,0.6869,0.6858,0.6851,0.684,0.6826,0.684,0.684,0.6837,0.6802,0.6802,0.6799,0.6824,0.6823,0.6823,0.6803,0,0.701,0.6985,0.6978,0.6956,0.6942,0.6936,0.6923,0.691,0.6901,0.6887,0.6876,0.686,0.6861,0.6854,0.6843,0.6831,0.6819,0.6832,0.6809,0.6808,0.6812,0.6796,0.6796,0.6779,0.6801,0.68,0.68,0,0.6991,0.6978,0.6955,0.6938,0.6932,0.6921,0.6904,0.6891,0.6875,0.6869,0.6857,0.685,0.6833,0.6837,0.6811,0.682,0.681,0.6803,0.6802,0.6798,0.6803,0.6791,0.6773,0.677,0.6796,0.6796,0.6797,0,0.6985,0.6961,0.6944,0.6937,0.6918,0.6909,0.6901,0.6885,0.6875,0.686,0.6853,0.6835,0.6825,0.6811,0.6799,0.6803,0.6774,0.6777,0.6767,0.6767,0.676,0.676,0.6739,0.6756,0.6756,0.6756,0.6756,0,0.6969,0.6955,0.6941,0.6931,0.6914,0.6905,0.6888,0.6879,0.6865,0.6851,0.6845,0.6832,0.6818,0.6802,0.6793,0.6772,0.6768,0.6761,0.6758,0.6761,0.6762,0.6753,0.6754,0.6755,0.6755,0.6755,0.6755,0,0.6959,0.695,0.6931,0.6914,0.6909,0.6898,0.6883,0.6871,0.6862,0.6844,0.684,0.6824,0.6806,0.6793,0.6769,0.6762,0.674,0.6738,0.6745,0.6744,0.6733,0.6734,0.6705,0.67,0.6721,0.6721,0.6721,0,0.695,0.6939,0.6921,0.6912,0.6904,0.6889,0.6879,0.6869,0.6858,0.6839,0.6829,0.681,0.6795,0.6765,0.675,0.6731,0.6728,0.6719,0.6725,0.6728,0.6726,0.6727,0.6725,0.6718,0.6718,0.6718,0.6718,0,0.6933,0.6929,0.6915,0.6899,0.6887,0.6874,0.6861,0.6853,0.684,0.6828,0.681,0.6798,0.6773,0.6754,0.6734,0.6723,0.6717,0.6716,0.6712,0.6714,0.6718,0.6714,0.6741,0.6716,0.6717,0.6717,0.6717,0.6717,0.6922,0.6912,0.6897,0.6882,0.6871,0.6858,0.6847,0.6836,0.6821,0.6801,0.6796,0.6776,0.6759,0.6731,0.672,0.6703,0.6704,0.6699,0.6697,0.6696,0.6695,0.6722,0.6699,0.67,0.67,0.67,0.67,0,0.6904,0.6894,0.688,0.6862,0.6849,0.6847,0.6832,0.6821,0.6804,0.679,0.6775,0.6753,0.6734,0.6718,0.6698,0.6687,0.6684,0.6682,0.6682,0.6679,0.6696,0.6701,0.6685,0.6685,0.6685,0.6685,0.6685,0.6685,0.6893,0.6875,0.6869,0.6844,0.6835,0.6816,0.6808,0.6795,0.6784,0.676,0.6744,0.6735,0.6719,0.6698,0.668,0.6675,0.6667,0.6666,0.6661,0.6677,0.6678,0.668,0.6684,0.6665,0.6665,0.6645,0.6645,0.6644]}]]